Weather in Bergen aan Zee

Netherlands     52°39′37″N   4°37′53″E
temp.,
°C
wind,
m/s
gust,
m/s
humid.,
%
clouds,
%
prec.,
mm/h
press.,
hPa
HPBL,
m
26 june, sun
sun2623:00+15ene3598100 4.3 1011177
02:00+16ssw3698100 5.4 1011252
05:00+15ssw4795100 0.1 1012296
08:00+16ssw578887 0.1 1013608
11:00+18sw5771100 0.0 1015852
14:00+18sw6768100 0.0 1016803
17:00+19wsw4562100 0.0 1016588
20:00+18nw116599 0.0 1016155
27 june, mon
mon2723:00+16ene2267100 0.0 101638
02:00+15ese2284100 0.3 101638
05:00+15sse2284100 0.1 101534
08:00+17s2382100 0.1 1015126
11:00+19wsw456787 0.2 1016502
14:00+18w6665100 0.3 1017754
17:00+18wsw46630 0.1 10181007
20:00+16sw46680 0.1 1018453
28 june, tue
tue2823:00+13ssw48825 0.0 1020160
02:00+13ssw47875 0.0 1020140
05:00+13ssw45880 0.0 1020101
08:00+16ssw46760 0.1 1021620
11:00+18sw56605 0.0 10211069
14:00+19sw57555 0.0 1020905
17:00+20w3449100 0.0 1019547
20:00+19ne3465100 0.0 1018202
29 june, wed
wed2923:00+15e51081100 0.0 1017172
02:00+15ese4108479 0.0 1016170
05:00+15se4976100 0.0 1015131
08:00+18sse4671100 0.0 1015168
11:00+22ssw4555100 0.0 1015563
14:00+22wsw55575 0.0 1016553
17:00+22wnw33551 0.0 1015504
20:00+20n336457 0.0 1014157
30 june, thu
thu3023:00+16ne357976 0.0 101587
02:00+15ene33860 0.0 101428
05:00+15ene33920 0.0 101240
08:00+20se24780 0.1 1012201
11:00+25se35593 0.0 1011689
14:00+28se364852 0.0 10101672
17:00+27sse355585 0.2 10091280
20:00+23s247689 1.1 1008112